When you browse on this site, cookies collect data to enhance your experience and personalize the content and advertising you see.
Visit our Privacy Policy to learn more. By continuing to use the site, you agree to this use of cookies and data.
  • In Schweiz
  • Länderverzeichnis
  • Für 7 Tage
  • Wassertemperatur
  • Wetterkarte
  • Widgets
  • user-avatar
    Anmelden

    Stündliche Wetter Sozopol

    Heute, 25 Februar, Dienstag

    Zeit Temperatur Niederschläge Wind Luftdruck Luftfeuchtigkeit
    00:00 +6°C° 0 mm 2 m/S 762 mmHg 55%
    01:00 +7°C° 0 mm 1 m/S 762 mmHg 56%
    02:00 +6°C° 0 mm 1 m/S 762 mmHg 57%
    03:00 +6°C° 0 mm 1 m/S 762 mmHg 57%
    04:00 +6°C° 0 mm 1 m/S 762 mmHg 58%
    05:00 +5°C° 0 mm 1 m/S 762 mmHg 58%
    06:00 +6°C° 0 mm 1 m/S 761 mmHg 60%
    07:00 +5°C° 0 mm 2 m/S 761 mmHg 61%
    08:00 +5°C° 0 mm 2 m/S 761 mmHg 62%
    09:00 +7°C° 0 mm 3 m/S 761 mmHg 59%
    10:00 +8°C° 0 mm 4 m/S 761 mmHg 55%
    11:00 +9°C° 0 mm 5 m/S 761 mmHg 52%
    12:00 +10°C° 0 mm 5 m/S 760 mmHg 50%
    13:00 +12°C° 0 mm 5 m/S 759 mmHg 48%
    14:00 +13°C° 0 mm 6 m/S 759 mmHg 46%
    15:00 +12°C° 0 mm 5 m/S 758 mmHg 49%
    16:00 +12°C° 0 mm 5 m/S 757 mmHg 52%
    17:00 +12°C° 0 mm 4 m/S 756 mmHg 55%
    18:00 +11°C° 0 mm 4 m/S 756 mmHg 56%
    19:00 +10°C° 0 mm 4 m/S 756 mmHg 57%
    20:00 +8°C° 0 mm 4 m/S 756 mmHg 59%
    21:00 +8°C° 0 mm 4 m/S 755 mmHg 60%
    22:00 +7°C° 0 mm 4 m/S 755 mmHg 61%
    23:00 +8°C° 0 mm 3 m/S 754 mmHg 62%

    Morgen, 26 Februar, Mittwoch

    Zeit Temperatur Niederschläge Wind Luftdruck Luftfeuchtigkeit
    00:00 +7°C° 0 mm 4 m/S 754 mmHg 64%
    01:00 +7°C° 0 mm 4 m/S 753 mmHg 65%
    02:00 +7°C° 0 mm 4 m/S 753 mmHg 67%
    03:00 +7°C° 0 mm 4 m/S 752 mmHg 68%
    04:00 +7°C° 0 mm 4 m/S 752 mmHg 68%
    05:00 +7°C° 0 mm 4 m/S 751 mmHg 69%
    06:00 +8°C° 0 mm 4 m/S 751 mmHg 71%
    07:00 +8°C° 0 mm 4 m/S 751 mmHg 73%
    08:00 +8°C° 0 mm 4 m/S 751 mmHg 76%
    09:00 +11°C° 0 mm 4 m/S 750 mmHg 73%
    10:00 +13°C° 0 mm 5 m/S 750 mmHg 70%
    11:00 +14°C° 0 mm 6 m/S 750 mmHg 67%
    12:00 +15°C° 0 mm 7 m/S 749 mmHg 65%
    13:00 +16°C° 0 mm 7 m/S 749 mmHg 63%
    14:00 +17°C° 0 mm 7 m/S 748 mmHg 61%
    15:00 +17°C° 0 mm 7 m/S 748 mmHg 64%
    16:00 +16°C° 0 mm 7 m/S 747 mmHg 66%
    17:00 +15°C° 0 mm 7 m/S 747 mmHg 68%
    18:00 +15°C° 0 mm 8 m/S 747 mmHg 69%
    19:00 +13°C° 0 mm 9 m/S 747 mmHg 69%
    20:00 +13°C° 0 mm 9 m/S 747 mmHg 70%
    21:00 +13°C° 0 mm 9 m/S 747 mmHg 71%
    22:00 +13°C° 0 mm 9 m/S 747 mmHg 72%
    23:00 +13°C° 0 mm 10 m/S 747 mmHg 74%

    übermorgen, 27 Februar, Donnerstag

    Zeit Temperatur Niederschläge Wind Luftdruck Luftfeuchtigkeit
    00:00 +13°C° 0 mm 9 m/S 747 mmHg 75%
    01:00 +13°C° 0 mm 9 m/S 747 mmHg 76%
    02:00 +13°C° 0 mm 9 m/S 747 mmHg 77%
    03:00 +12°C° 0 mm 9 m/S 747 mmHg 76%
    04:00 +12°C° 0 mm 9 m/S 747 mmHg 75%
    05:00 +12°C° 0 mm 9 m/S 746 mmHg 74%
    06:00 +12°C° 0 mm 8 m/S 746 mmHg 73%
    07:00 +12°C° 0 mm 8 m/S 746 mmHg 72%
    08:00 +12°C° 0 mm 7 m/S 746 mmHg 71%
    09:00 +13°C° 0 mm 8 m/S 746 mmHg 65%
    10:00 +15°C° 0 mm 9 m/S 746 mmHg 59%
    11:00 +16°C° 0 mm 10 m/S 746 mmHg 54%
    12:00 +16°C° 0.3 mm 10 m/S 746 mmHg 54%
    13:00 +14°C° 0.3 mm 10 m/S 746 mmHg 55%
    14:00 +13°C° 0.3 mm 10 m/S 745 mmHg 56%
    15:00 +11°C° 0.2 mm 8 m/S 746 mmHg 62%
    16:00 +9°C° 0.2 mm 7 m/S 746 mmHg 68%
    17:00 +7°C° 0.2 mm 6 m/S 747 mmHg 74%
    18:00 +7°C° 0 mm 6 m/S 748 mmHg 70%
    19:00 +5°C° 0 mm 6 m/S 749 mmHg 66%
    20:00 +5°C° 0 mm 6 m/S 750 mmHg 62%
    21:00 +4°C° 0 mm 7 m/S 751 mmHg 64%
    22:00 +3°C° 0 mm 9 m/S 752 mmHg 65%
    23:00 +2°C° 0 mm 10 m/S 752 mmHg 66%

    28 Februar, Freitag

    Zeit Temperatur Niederschläge Wind Luftdruck Luftfeuchtigkeit
    00:00 +2°C° 0 mm 8 m/S 753 mmHg 71%
    01:00 +3°C° 0 mm 6 m/S 754 mmHg 75%
    02:00 +3°C° 0 mm 4 m/S 754 mmHg 80%
    03:00 +3°C° 0 mm 4 m/S 755 mmHg 78%
    04:00 +1°C° 0 mm 4 m/S 755 mmHg 76%
    05:00 +1°C° 0 mm 4 m/S 756 mmHg 75%
    06:00 +3°C° 0 mm 4 m/S 756 mmHg 72%
    07:00 +3°C° 0 mm 3 m/S 756 mmHg 69%
    08:00 +3°C° 0 mm 3 m/S 757 mmHg 65%
    09:00 +5°C° 0 mm 3 m/S 756 mmHg 58%
    10:00 +7°C° 0 mm 4 m/S 756 mmHg 51%
    11:00 +9°C° 0 mm 5 m/S 755 mmHg 44%
    12:00 +9°C° 0 mm 5 m/S 755 mmHg 44%
    13:00 +10°C° 0 mm 6 m/S 754 mmHg 44%
    14:00 +11°C° 0 mm 6 m/S 753 mmHg 43%
    15:00 +10°C° 0 mm 6 m/S 753 mmHg 48%
    16:00 +10°C° 0 mm 5 m/S 753 mmHg 53%
    17:00 +10°C° 0 mm 5 m/S 752 mmHg 58%
    18:00 +9°C° 0.1 mm 5 m/S 753 mmHg 64%
    19:00 +8°C° 0.1 mm 5 m/S 753 mmHg 71%
    20:00 +7°C° 0.1 mm 6 m/S 754 mmHg 77%
    21:00 +5°C° 0.3 mm 6 m/S 754 mmHg 76%
    22:00 +5°C° 0.3 mm 6 m/S 755 mmHg 74%
    23:00 +4°C° 0.3 mm 7 m/S 755 mmHg 73%

    29 Februar, Samstag

    Zeit Temperatur Niederschläge Wind Luftdruck Luftfeuchtigkeit
    00:00 +4°C° 0 mm 7 m/S 755 mmHg 71%
    01:00 +2°C° 0 mm 8 m/S 756 mmHg 69%
    02:00 +2°C° 0 mm 8 m/S 756 mmHg 67%
    03:00 +1°C° 0 mm 8 m/S 756 mmHg 67%
    04:00 +1°C° 0 mm 8 m/S 757 mmHg 67%
    05:00 +2°C° 0 mm 7 m/S 757 mmHg 67%
    06:00 +2°C° 0 mm 7 m/S 758 mmHg 66%
    07:00 +2°C° 0 mm 7 m/S 758 mmHg 64%
    08:00 +2°C° 0 mm 7 m/S 759 mmHg 63%
    09:00 +3°C° 0 mm 6 m/S 759 mmHg 57%
    10:00 +5°C° 0 mm 6 m/S 759 mmHg 52%
    11:00 +7°C° 0 mm 6 m/S 760 mmHg 47%
    12:00 +8°C° 0 mm 5 m/S 760 mmHg 43%
    13:00 +10°C° 0 mm 4 m/S 759 mmHg 39%
    14:00 +11°C° 0 mm 3 m/S 759 mmHg 36%
    15:00 +10°C° 0 mm 3 m/S 759 mmHg 37%
    16:00 +10°C° 0 mm 2 m/S 759 mmHg 39%
    17:00 +10°C° 0 mm 2 m/S 759 mmHg 41%
    18:00 +9°C° 0 mm 3 m/S 760 mmHg 44%
    19:00 +7°C° 0 mm 3 m/S 760 mmHg 48%
    20:00 +5°C° 0 mm 4 m/S 760 mmHg 51%
    21:00 +5°C° 0 mm 4 m/S 760 mmHg 54%
    22:00 +5°C° 0 mm 4 m/S 760 mmHg 57%
    23:00 +4°C° 0 mm 4 m/S 760 mmHg 60%

    1 März, Sonntag

    Zeit Temperatur Niederschläge Wind Luftdruck Luftfeuchtigkeit
    00:00 +4°C° 0 mm 4 m/S 759 mmHg 59%
    01:00 +5°C° 0 mm 4 m/S 759 mmHg 58%
    02:00 +5°C° 0 mm 4 m/S 758 mmHg 57%
    03:00 +4°C° 0 mm 4 m/S 758 mmHg 58%
    04:00 +4°C° 0 mm 3 m/S 758 mmHg 59%
    05:00 +4°C° 0 mm 3 m/S 758 mmHg 60%
    06:00 +4°C° 0 mm 3 m/S 758 mmHg 62%
    07:00 +5°C° 0 mm 3 m/S 758 mmHg 65%
    08:00 +5°C° 0 mm 3 m/S 758 mmHg 67%
    09:00 +7°C° 0 mm 4 m/S 757 mmHg 64%
    10:00 +10°C° 0 mm 4 m/S 757 mmHg 61%
    11:00 +12°C° 0 mm 5 m/S 757 mmHg 58%
    12:00 +13°C° 0 mm 5 m/S 756 mmHg 57%
    13:00 +13°C° 0 mm 5 m/S 756 mmHg 56%
    14:00 +14°C° 0 mm 5 m/S 755 mmHg 54%
    15:00 +14°C° 0 mm 4 m/S 755 mmHg 58%
    16:00 +14°C° 0 mm 4 m/S 755 mmHg 62%
    17:00 +13°C° 0 mm 3 m/S 755 mmHg 65%
    18:00 +13°C° 0 mm 4 m/S 755 mmHg 68%
    19:00 +12°C° 0 mm 4 m/S 755 mmHg 72%
    20:00 +10°C° 0 mm 5 m/S 755 mmHg 75%
    21:00 +11°C° 0 mm 4 m/S 755 mmHg 76%
    22:00 +10°C° 0 mm 4 m/S 755 mmHg 77%
    23:00 +10°C° 0 mm 4 m/S 755 mmHg 78%
    Mehr zeigen